Location: Unspecified
(0.0000°N, 0.0000°E)
Time: 09:13:30
(UTC+01:00)

HO-68 - Visible Passes

Search period start: 18 January 2018 00:00
Search period end: 28 January 2018 00:00
Orbit: 1192 x 1205 km, 100.1° (Epoch: 17 January)

Date Brightness Start Highest point End Pass type
(mag) Time Alt. Az. Time Alt. Az. Time Alt. Az.
18 Jan ? 20:25:49 10° S 20:32:17 37° WSW 20:38:46 10° NW visible
19 Jan ? 06:31:30 10° ENE 06:36:23 20° ESE 06:41:16 10° SSE visible
19 Jan ? 20:08:29 10° S 20:15:26 53° WSW 20:22:22 10° NNW visible
20 Jan ? 06:16:35 10° E 06:19:33 13° ESE 06:22:31 10° SE visible
20 Jan ? 19:51:24 10° S 19:58:34 75° WSW 20:05:42 10° NNW visible
21 Jan ? 19:34:30 10° SSE 19:41:42 79° ENE 19:48:51 10° N visible
22 Jan ? 21:08:25 10° SW 21:12:10 15° WSW 21:15:55 10° WNW visible
23 Jan ? 20:50:03 10° SSW 20:55:20 22° WSW 21:00:37 10° WNW visible
24 Jan ? 20:32:18 10° SSW 20:38:29 32° WSW 20:44:41 10° NW visible
25 Jan ? 06:37:11 10° NE 06:42:34 23° ESE 06:47:58 10° SSE visible
25 Jan ? 20:14:51 10° S 20:21:38 46° WSW 20:28:24 10° NNW visible
26 Jan ? 06:21:47 10° ENE 06:25:44 16° ESE 06:29:41 10° SE visible
26 Jan ? 19:57:41 10° S 20:04:46 65° WSW 20:11:50 10° NNW visible
27 Jan ? 19:40:42 10° SSE 19:47:54 90° WSW 19:55:04 10° NNW visible
